This is the latest recevied weather packets stored in our database for station/object 4S6DRJ-13. If no packets are shown the sender has not sent any weather packets the latest 10 day(s).
| Time | Temp. | Humidity | Pressure | Rain* | Wind** | Luminosity | Snow |
|---|---|---|---|---|---|---|---|
| 1787618437 | 25° C | 92% | 1010.1 hPa | 0 mm | 0 m/s | 6 W/m² | - |
| 1787618376 | 25° C | 92% | 1010.1 hPa | 0 mm | 0 m/s | 5 W/m² | - |
| 1787618315 | 25° C | 92% | 1010.1 hPa | 0 mm | 0.45 m/s, 117° | 5 W/m² | - |
| 1787618254 | 25° C | 92% | 1010.1 hPa | 0 mm | 0 m/s | 5 W/m² | - |
| 1787618192 | 25° C | 92% | 1010 hPa | 0 mm | 0.45 m/s, 64° | 4 W/m² | - |
| 1787618132 | 25° C | 92% | 1010 hPa | 0 mm | 1.34 m/s, 112° | 4 W/m² | - |
| 1787618071 | 25° C | 92% | 1010 hPa | 0 mm | 0.89 m/s, 122° | 3 W/m² | - |
| 1787618010 | 25° C | 92% | 1010 hPa | 0 mm | 0.89 m/s, 111° | 3 W/m² | - |
| 1787617949 | 25° C | 92% | 1010.1 hPa | 0 mm | 0.89 m/s, 87° | 2 W/m² | - |
| 1787617888 | 25° C | 91% | 1010.1 hPa | 0 mm | 1.34 m/s, 83° | 2 W/m² | - |
| 1787617827 | 25° C | 91% | 1010.1 hPa | 0 mm | 0.45 m/s, 86° | 1 W/m² | - |
| 1787617767 | 25.56° C | 91% | 1010.2 hPa | 0 mm | 0.89 m/s, 85° | 1 W/m² | - |
| 1787617705 | 25.56° C | 91% | 1010.1 hPa | 0 mm | 0.89 m/s, 88° | 1 W/m² | - |
| 1787617644 | 25.56° C | 91% | 1010 hPa | 0 mm | 0.89 m/s, 97° | 1 W/m² | - |
| 1787617583 | 25.56° C | 91% | 1010.1 hPa | 0 mm | 0.45 m/s, 86° | 1 W/m² | - |
| 1787617522 | 25.56° C | 91% | 1009.9 hPa | 0 mm | 0.45 m/s, 96° | 1 W/m² | - |
| 1787617461 | 25.56° C | 91% | 1010.1 hPa | 0 mm | 0.89 m/s, 99° | 0 W/m² | - |
| 1787617400 | 25.56° C | 91% | 1009.9 hPa | 0 mm | 0.89 m/s, 73° | 0 W/m² | - |
| 1787617339 | 25.56° C | 91% | 1010 hPa | 0 mm | 1.34 m/s, 76° | 0 W/m² | - |
| 1787617278 | 25.56° C | 91% | 1010 hPa | 0 mm | 0.89 m/s, 79° | 0 W/m² | - |
| 1787617217 | 25.56° C | 91% | 1010 hPa | 0 mm | 0.89 m/s, 124° | 0 W/m² | - |
| 1787617156 | 25.56° C | 90% | 1010 hPa | 0 mm | 0.89 m/s, 91° | 0 W/m² | - |
| 1787617095 | 25.56° C | 90% | 1010.2 hPa | 0 mm | 0.89 m/s, 103° | 0 W/m² | - |
| 1787617034 | 25.56° C | 90% | 1010.1 hPa | 0 mm | 0 m/s | 0 W/m² | - |
| 1787616973 | 25.56° C | 90% | 1010 hPa | 0 mm | 0 m/s | 0 W/m² | - |
* Rain latest hour (hover to see other rain measurements)
** Current wind speed in m/s (hover to see current wind gust speed)